Probability
96 96 93 86 81 81 79 59 28 8 3 2 1 0 0 0 0 0 0 0 0 0 0 0 0 0 0 0 0 0 1 6 16 25 24 16 10 9 11 16 28 44 52
89 83 70 57 51 55 60 47 20 4 1 1 0 0 0 0 0 0 0 0 0 0 0 0 0 0 0 0 0 0 0 2 7 10 10 6 5 8 15 26 40 50 55
66 52 31 19 16 22 33 29 11 0 0 0 0 0 0 0 0 0 0 0 0 0 0 0 0 0 0 0 0 0 0 0 0 0 0 0 1 7 18 30 40 44 45
33 19 6 2 2 5 11 13 9 6 5 4 3 2 1 0 0 0 0 0 0 0 0 0 0 0 0 0 0 0 0 0 0 0 0 3 6 9 13 18 21 22 22
13 6 1 2 2 2 3 9 20 27 27 25 22 19 11 4 0 0 0 0 0 0 0 0 0 0 0 0 0 0 0 0 0 0 0 5 11 9 6 5 4 5 4
12 8 7 10 15 16 13 18 32 46 52 52 51 48 40 25 11 3 0 0 0 0 0 0 0 0 0 0 0 0 0 0 0 0 0 3 6 5 2 1 0 1 2
12 10 10 17 30 37 36 39 46 52 57 62 66 73 74 59 31 9 1 0 0 0 0 0 0 0 0 0 0 0 0 0 0 0 0 1 4 4 2 0 4 14 20
5 5 5 12 26 36 42 53 62 65 65 67 74 86 92 80 49 19 5 1 0 0 0 0 0 0 0 0 0 0 0 0 0 0 0 4 13 21 20 12 19 41 53
0 0 0 3 8 14 19 32 50 62 66 68 76 90 97 89 68 40 17 3 0 0 0 0 0 0 0 0 0 0 0 0 0 0 0 4 18 40 51 45 51 69 75
0 0 0 0 0 0 1 7 17 27 34 40 52 68 80 86 84 64 31 8 0 0 0 0 0 0 0 0 0 0 0 0 0 0 0 2 12 35 59 72 81 87 87
0 0 0 0 0 0 0 0 1 3 5 9 16 26 40 56 70 66 43 16 3 0 0 0 0 0 0 0 0 0 0 0 0 0 0 0 3 16 38 60 76 84 85
0 0 0 0 0 0 0 0 0 0 0 0 0 2 8 18 31 41 35 18 6 2 2 1 0 0 0 0 0 0 0 0 0 0 0 0 1 5 15 27 39 52 57
0 0 0 0 0 0 0 0 0 0 0 0 0 0 0 1 5 11 13 9 9 14 14 8 3 0 0 0 0 0 0 0 0 0 0 0 0 1 3 5 10 16 22
0 0 0 0 0 0 0 0 0 0 0 0 0 0 0 0 0 0 1 3 18 38 44 30 13 2 0 0 0 0 0 0 0 0 0 0 0 0 0 0 0 2 3
0 0 0 0 0 0 0 0 0 0 0 0 0 0 0 0 0 0 0 5 28 57 69 51 22 4 0 0 0 0 0 0 0 0 0 0 0 0 0 0 0 0 0
0 0 0 0 0 0 0 0 0 0 0 0 0 0 0 0 0 0 0 4 22 47 57 43 20 5 1 0 0 0 0 0 0 0 0 0 0 0 0 0 0 0 0
0 0 0 0 0 0 0 0 0 0 0 0 0 0 0 0 0 0 0 1 9 20 23 17 10 4 1 0 0 0 0 0 0 0 0 0 0 0 0 0 0 0 0
0 0 0 0 0 0 0 0 0 0 0 0 0 0 0 0 0 0 0 0 1 3 3 3 4 4 1 0 0 0 0 0 0 0 0 0 0 0 0 0 0 0 0
0 0 0 0 0 0 0 0 0 0 0 0 0 0 0 0 0 0 0 0 0 0 0 1 2 2 1 0 0 0 0 0 0 0 0 0 0 0 0 0 0 0 0
0 0 0 0 0 0 0 0 0 0 0 0 0 0 0 0 0 0 0 0 0 0 1 1 1 0 0 0 0 0 0 0 0 0 0 0 0 0 0 0 0 0 0
0 0 0 0 0 0 0 0 0 0 0 0 0 0 0 0 0 0 0 0 0 0 2 3 2 0 0 0 0 0 0 0 0 0 0 0 0 0 0 0 0 0 0
0 0 0 0 0 0 0 0 0 0 0 0 0 0 0 0 0 0 0 0 0 0 1 3 1 0 0 0 0 0 0 0 0 0 0 0 0 0 0 0 0 0 0
0 0 0 0 0 0 0 0 0 0 0 0 0 0 0 0 0 0 0 0 0 0 0 1 0 0 0 0 0 0 0 0 0 0 0 0 0 0 0 0 0 0 0
0 0 0 0 0 0 0 0 0 0 0 0 0 0 0 0 0 0 0 0 0 0 0 0 0 0 0 0 0 0 0 0 0 0 0 0 0 0 0 0 0 0 0
0 0 0 0 0 0 0 0 0 0 0 0 0 0 0 0 0 0 0 0 0 0 0 0 0 0 0 0 0 0 0 0 0 0 0 0 0 0 0 0 0 0 0
0 0 0 0 0 0 0 0 0 0 0 0 0 0 0 0 0 0 0 0 0 0 0 0 0 0 0 0 0 0 0 0 0 0 0 0 0 0 0 0 0 0 0
Wind_Speed
9 8 7 7 7 7 7 5 4 4 3 3 3 2 3 2 3 2 3 3 3 1 3 6 6 7 8 8 10 11 13 13 12 11 13 15 15 15 11 11 12 13 12
9 8 6 7 7 8 7 6 5 6 4 3 2 2 3 3 2 2 2 3 3 4 4 5 7 8 9 10 11 12 11 12 13 12 12 13 13 15 13 11 11 11 9
9 8 7 8 8 7 7 7 6 6 5 4 3 5 6 7 7 6 6 3 3 5 5 6 7 8 9 10 10 11 13 12 13 12 12 12 12 8 10 9 10 9 8
8 7 8 8 7 7 7 7 8 7 7 6 6 5 6 6 6 5 5 4 4 5 6 7 7 8 9 10 9 9 10 13 13 13 14 16 15 12 10 7 8 9 9
9 7 9 6 3 3 6 7 9 9 8 8 8 6 7 6 5 5 5 5 4 5 6 6 7 8 9 9 11 11 10 11 13 14 13 13 13 15 15 12 9 10 11
3 0 5 5 6 6 7 7 7 8 8 9 9 8 7 7 7 5 6 5 5 4 4 6 8 9 10 10 10 11 13 13 12 12 12 13 12 12 11 13 14 13 7
14 17 20 16 13 11 11 10 8 9 9 9 9 8 8 7 8 7 6 5 5 5 5 5 7 9 11 12 11 10 11 13 13 13 12 12 12 13 12 11 11 11 6
16 17 14 13 15 16 17 16 14 12 10 9 8 7 7 6 6 6 5 5 4 4 5 7 8 10 11 12 11 10 11 12 13 15 14 11 11 12 13 13 11 8 7
15 15 16 17 17 17 16 17 18 17 14 9 6 5 6 7 7 7 7 6 5 5 5 7 9 10 11 12 12 10 13 13 14 14 14 11 10 9 10 11 9 9 9
14 14 14 15 16 16 15 14 15 16 16 16 13 9 8 8 9 9 10 8 7 6 7 8 9 11 12 12 9 11 12 12 11 10 12 12 9 9 10 9 8 9 8
14 13 14 14 13 13 12 13 13 14 14 15 14 14 13 13 11 10 11 11 9 8 8 9 9 11 12 11 10 11 10 9 7 9 8 6 6 7 8 8 7 7 7
13 13 13 12 11 11 11 10 11 11 13 13 12 12 12 14 13 12 12 12 11 11 10 10 9 10 10 9 10 9 7 6 5 5 4 3 4 5 5 6 8 7 8
16 15 15 15 14 12 10 9 8 9 9 13 13 10 10 13 14 13 13 13 13 13 13 11 10 10 9 9 9 7 7 4 5 5 3 3 5 4 5 6 4 3 6
16 16 14 12 11 9 7 7 8 6 5 6 11 11 8 11 14 15 12 13 13 14 15 13 10 9 9 9 9 7 7 5 5 5 5 4 4 3 7 8 8 7 8
13 13 13 12 10 11 10 11 10 11 10 9 10 11 10 8 12 15 14 13 11 12 15 14 11 10 9 7 6 7 7 5 2 3 4 4 5 6 8 8 9 8 7
15 16 15 16 13 12 12 14 12 12 13 15 15 14 12 12 13 13 13 14 11 9 12 15 13 11 8 7 3 6 6 3 2 3 0 4 8 8 9 10 10 8 8
17 18 19 19 18 18 16 17 15 15 14 12 14 12 8 12 13 12 12 14 13 10 10 14 14 12 10 11 9 7 5 4 2 4 1 4 7 8 10 10 10 11 11
20 20 20 20 20 20 20 20 20 18 18 17 17 18 15 16 16 13 11 13 12 10 9 11 14 14 12 14 12 8 9 7 5 4 4 6 6 7 8 8 9 10 8
21 21 21 22 22 21 21 20 20 19 19 18 18 19 19 16 17 15 13 13 12 12 10 8 10 12 12 15 15 11 11 9 8 6 6 5 7 3 3 7 10 10 9
22 22 22 23 22 20 20 20 19 20 20 20 18 17 18 16 16 14 12 12 12 13 13 9 6 8 11 15 17 14 12 9 9 8 6 5 7 4 1 5 8 10 10
24 25 24 20 18 17 17 19 20 19 20 19 17 17 18 16 15 13 12 12 13 13 13 13 8 2 6 8 16 16 12 9 9 9 8 7 7 6 2 3 7 8 9
26 25 20 18 18 17 17 18 19 17 17 17 15 17 19 17 14 13 12 12 13 14 13 12 10 5 2 6 9 15 14 7 8 9 8 9 9 8 6 5 8 7 7
25 24 22 22 21 19 15 18 19 16 16 15 14 16 19 18 15 14 13 12 13 12 13 9 8 5 4 1 7 12 12 7 5 7 13 13 12 12 9 8 7 5 4
24 24 20 18 19 19 16 19 19 16 14 16 18 13 13 16 13 13 12 12 13 11 10 6 7 6 5 4 6 6 8 8 9 14 14 12 9 10 10 7 5 4 4
24 24 19 18 20 19 19 21 18 17 16 16 14 12 10 12 13 13 11 12 11 7 6 5 7 5 6 6 6 9 12 10 12 14 12 11 11 10 10 8 7 5 5
26 25 20 19 21 21 21 18 18 14 14 13 12 11 10 9 9 10 12 15 12 4 7 11 10 8 6 9 7 6 8 18 14 11 12 11 11 10 9 9 8 9 8
Wind_Direction
132 133 136 145 149 155 159 166 166 137 159 184 218 216 238 239 242 223 202 225 236 276 295 298 296 282 280 282 279 269 260 253 247 250 265 262 261 258 248 250 254 246 237
147 145 156 159 164 163 163 155 158 151 183 203 232 296 286 276 293 274 233 241 277 293 289 297 290 290 287 273 262 262 267 265 262 260 264 267 264 255 248 231 241 251 255
153 150 172 172 176 179 174 160 170 177 200 214 203 214 225 227 228 228 235 240 290 285 289 287 287 287 279 274 270 265 262 265 266 261 255 262 257 256 251 231 227 231 230
140 173 195 193 198 197 188 177 187 200 208 219 243 262 288 299 312 296 296 312 287 289 291 286 290 286 275 276 273 260 265 268 266 258 248 247 266 276 275 234 215 210 219
160 193 227 228 249 252 224 206 204 215 222 224 242 245 262 284 279 273 274 266 258 265 281 299 300 288 282 290 288 277 264 257 258 265 266 258 246 243 252 260 245 223 211
57 282 290 326 325 312 291 269 249 246 241 237 235 239 255 268 270 258 266 290 300 284 266 291 298 297 294 286 275 272 269 266 269 271 271 266 261 248 239 244 247 253 244
26 27 13 2 357 349 333 314 295 280 268 253 247 243 244 244 246 244 262 289 298 311 324 313 300 300 299 295 285 276 275 272 265 263 261 261 261 267 256 248 251 252 251
42 46 38 23 27 19 9 359 345 324 303 278 257 245 240 237 235 234 256 268 290 302 314 298 295 292 292 294 291 283 274 272 269 266 264 261 258 256 256 249 240 239 235
32 35 31 27 26 24 19 15 6 2 358 345 307 271 257 255 246 238 230 238 249 266 271 287 293 294 296 298 297 295 288 281 272 271 274 262 249 244 249 253 240 222 222
24 22 21 20 13 8 7 10 9 5 5 4 355 343 315 276 255 243 242 246 245 249 267 280 289 293 293 298 306 281 274 273 277 281 278 274 261 246 239 227 222 217 221
8 3 7 5 0 357 355 355 355 352 351 352 346 345 335 319 290 264 254 250 247 245 250 262 278 287 292 301 298 289 290 292 305 304 295 290 286 266 257 250 238 220 212
355 348 344 339 340 342 340 341 339 341 342 335 329 331 326 315 309 300 286 267 253 248 246 251 262 276 286 293 289 293 295 291 312 336 4 0 322 300 298 272 247 227 203
340 337 336 334 336 336 326 319 319 330 335 323 313 317 324 316 314 315 310 292 268 254 249 247 253 265 276 280 280 285 272 275 294 302 328 342 324 49 55 38 40 103 123
327 324 321 312 304 298 292 279 272 275 277 288 299 295 296 309 307 300 303 298 280 260 249 245 247 250 255 266 268 282 280 265 283 318 340 330 344 40 88 82 66 75 96
283 279 279 278 279 280 273 260 239 231 225 221 235 261 271 272 278 291 302 298 293 274 255 242 234 232 236 239 247 258 260 248 252 33 13 13 26 63 92 106 100 90 94
277 278 275 277 280 276 277 279 265 258 246 237 235 227 233 255 268 272 276 283 289 291 271 244 228 219 221 151 184 258 242 235 137 93 289 119 113 103 97 97 98 113 131
300 306 311 310 310 308 296 297 294 288 285 279 281 280 264 271 272 278 291 294 297 301 292 259 230 216 208 164 178 229 229 219 165 111 36 96 111 134 123 110 95 75 53
309 310 308 307 306 304 300 294 289 288 286 287 288 293 289 284 281 280 280 283 289 294 286 269 239 220 205 174 179 203 229 216 218 152 128 110 128 128 136 133 118 97 69
311 309 306 305 305 302 299 296 291 286 278 275 283 289 286 283 278 271 271 279 289 288 275 258 258 230 205 175 177 195 224 213 202 179 141 140 129 80 137 142 122 105 87
308 307 305 303 298 298 297 294 291 290 286 285 287 283 276 275 274 271 271 270 274 279 281 263 248 252 222 183 181 197 223 196 195 176 137 73 111 119 319 149 135 122 119
308 305 301 299 301 302 302 296 292 289 289 287 287 290 279 273 263 257 259 263 268 273 281 279 253 201 292 229 190 197 228 194 200 180 166 132 119 114 96 162 138 124 124
306 306 305 302 304 304 299 294 289 286 289 289 290 290 280 272 263 256 258 258 262 265 268 270 256 204 162 317 250 199 222 235 208 184 152 126 128 113 102 108 109 127 151
304 305 307 310 308 300 294 290 286 285 278 274 281 283 277 268 265 262 259 254 247 248 260 263 254 216 160 348 278 212 205 214 211 138 115 123 125 116 106 116 138 166 173
303 303 307 302 297 293 287 279 282 282 275 277 281 276 271 276 265 258 252 252 253 241 249 261 239 193 151 185 241 195 193 161 124 117 123 130 126 111 117 142 168 179 164
304 306 307 298 295 294 289 291 288 279 272 270 275 267 249 261 271 261 257 262 257 248 264 243 232 179 169 209 219 193 177 165 151 144 144 149 144 146 158 167 165 148 152
307 306 306 299 295 294 289 288 287 279 266 267 267 266 259 241 247 268 263 242 244 208 226 230 210 177 168 128 140 196 165 146 156 160 157 156 155 157 163 159 156 156 157